Regional Weather Roundup
Issued by NWS State College, PA

Home | Current Version | Previous Version | Text Only | Print | Product List | Glossary Off
Versions: 1 2 3 4 5 6 7 8 9 10 11 12 13 14 15 16 17 18 19 20 21 22 23 24 25 26 27 28 29 30 31 32 33 34 35 36 37 38 39 40 41 42 43 44 45 46 47 48 49 50

000
ASUS41 KCTP 241910
RWRCTP

REGIONAL WEATHER ROUNDUP
NATIONAL WEATHER SERVICE STATE COLLEGE PA
300 PM EDT WED MAY 24 2017

Note: "fair" indicates few or no clouds below 12,000 feet with no
significant weather and/or obstructions to visibility.

* = STATION THAT DOES NOT REPORT PRECIPITATION /E.G. RAIN...SNOW...ETC/
    THUNDER OR FOG.

PAZ002>004-007>009-013>016-020>023-029>032-242000-
WESTERN PENNSYLVANIA

CITY           SKY/WX    TMP DP  RH WIND       PRES   REMARKS
ERIE           CLOUDY    68  52  56 SE8       29.59F
MEADVILLE      CLOUDY    68  52  56 MISG      29.61S
FRANKLIN*      PTSUNNY   66  52  59 SE13      29.63S
NEW CASTLE     CLOUDY    65  56  72 SE10G22   29.61
BEAVER COUNTY  LGT RAIN  59  57  94 SE7       29.61S
BUTLER*        PTSUNNY   63  54  72 SE12      29.62F
PITTSBURGH INT CLOUDY    62  60  93 E10       29.60S
PITTSBURGH     CLOUDY    65  52  62 SE15G25   29.61S
INDIANA*       CLOUDY    64  52  63 S13G22    29.69S
LATROBE        PTSUNNY   63  52  67 E12G21    29.64F
WASHINGTON CO* PTSUNNY   66  57  72 E9G21     29.61S
$$

PAZ004>006-010>012-017>019-024>028-033>037-041-042-045-046-049>053-242000-
CENTRAL PENNSYLVANIA

CITY           SKY/WX    TMP DP  RH WIND       PRES   REMARKS
BRADFORD       CLOUDY    67  48  50 SE15      29.68S
DUBOIS         CLOUDY    68  45  43 E15G23    29.65S
CLEARFIELD     CLOUDY    70  47  43 SE13G24   29.68S
JOHNSTOWN      CLOUDY    58  51  78 SE10      29.68F
ALTOONA        CLOUDY    65  51  60 SE16      29.70F
STATE COLLEGE  CLOUDY    68  48  49 SE9G18    29.71R
WILLIAMSPORT   CLOUDY    74  48  39 SE14      29.69R
SELINSGROVE    CLOUDY    74  48  39 S10       29.72R
FT INDIANTOWN  CLOUDY    69  51  52 SE7       29.73R
CAPITAL CITY   CLOUDY    73  52  47 SE8       29.72R
HARRISBURG     CLOUDY    71  54  54 SE8       29.72R
YORK           CLOUDY    68  54  60 SE12      29.73S
$$

PAZ038>040-043-044-047-048-054-055-060>062-067>071-242000-
EASTERN PENNSYLVANIA

CITY           SKY/WX    TMP DP  RH WIND       PRES   REMARKS
SCRANTON       PTSUNNY   72  47  40 SE8       29.71S
MOUNT POCONO   PTSUNNY   64  47  53 E8G17     29.75F
ALLENTOWN      CLOUDY    72  50  45 SE9       29.76R
QUAKERTOWN*    CLOUDY    68  52  56 SE8       29.77R
READING        PTSUNNY   71  52  50 SE9       29.72S
LANCASTER      CLOUDY    72  52  49 SE10      29.73R
COATESVILLE    MOCLDY    68  52  56 E14       29.75S
POTTSTOWN      CLOUDY    69  51  52 E10       29.77R
BLUE BELL      CLOUDY    68  54  60 SE7       29.77R
DOYLESTOWN     CLOUDY    70  53  54 VRB6      29.75R
WILLOW GROVE   NOT AVBL
NORTH PHILA    CLOUDY    72  50  45 E15       29.77R
PHILADELPHIA   CLOUDY    71  53  52 E8        29.76R
$$



USA.gov is the U.S. government's official web portal to all federal, state and local government web resources and services.